TALON08 EPDE-EPDE

Flight info

Callsign TALON08
Flight time 0h 21m
Altitude 5000
Route TDN 12 TCN Z
Aircraft M346/L-S/C

Departure

Time 2026-04-14 11:24
Airport Deblin Military Air Base (EPDE)

Arrival

Time 2026-04-14 11:46
Airport Deblin Military Air Base (EPDE)
Time Latitude Longitude Altitude Speed Heading
2026-04-14 11:20 51.55549 21.87739 383 ft 0 kts 15°
2026-04-14 11:21 51.55584 21.87754 384 ft 16 kts 15°
2026-04-14 11:21 51.55613 21.87842 385 ft 3 kts 102°
2026-04-14 11:21 51.55598 21.87894 385 ft 4 kts 118°
2026-04-14 11:21 51.55597 21.87895 385 ft 0 kts 120°
2026-04-14 11:23 51.55563 21.87990 385 ft 62 kts 121°
2026-04-14 11:24 51.55035 21.89432 807 ft 223 kts 121°
2026-04-14 11:24 51.54164 21.92224 2384 ft 327 kts 96°
2026-04-14 11:24 51.55392 21.95388 3151 ft 383 kts 28°
2026-04-14 11:24 51.58058 21.94776 4307 ft 419 kts 326°
2026-04-14 11:25 51.60700 21.92210 4915 ft 462 kts 328°
2026-04-14 11:25 51.63466 21.89623 5013 ft 453 kts 329°
2026-04-14 11:25 51.66114 21.87131 5027 ft 428 kts 327°
2026-04-14 11:25 51.68645 21.84722 5026 ft 415 kts 328°
2026-04-14 11:26 51.70840 21.81880 5052 ft 400 kts 302°
2026-04-14 11:26 51.71500 21.77732 4956 ft 383 kts 257°
2026-04-14 11:26 51.70378 21.73977 5021 ft 371 kts 230°
2026-04-14 11:26 51.68488 21.71286 4955 ft 367 kts 207°
2026-04-14 11:27 51.66079 21.70052 4912 ft 354 kts 188°
2026-04-14 11:27 51.64477 21.69909 4915 ft 343 kts 176°
2026-04-14 11:27 51.61728 21.71172 4285 ft 300 kts 152°
2026-04-14 11:27 51.60751 21.73633 3852 ft 245 kts 118°
2026-04-14 11:28 51.60297 21.75129 3681 ft 198 kts 121°
2026-04-14 11:28 51.59738 21.76777 3211 ft 152 kts 121°
2026-04-14 11:28 51.59237 21.78230 2772 ft 146 kts 123°
2026-04-14 11:28 51.58679 21.79637 2347 ft 159 kts 125°
2026-04-14 11:29 51.58102 21.81123 1972 ft 146 kts 121°
2026-04-14 11:29 51.57613 21.82478 1579 ft 140 kts 121°
2026-04-14 11:29 51.57068 21.83897 1189 ft 152 kts 122°
2026-04-14 11:29 51.56508 21.85412 936 ft 157 kts 123°
2026-04-14 11:30 51.55808 21.87388 827 ft 292 kts 121°
2026-04-14 11:30 51.55770 21.90639 2080 ft 382 kts 27°
2026-04-14 11:30 51.58299 21.88998 4053 ft 470 kts 307°
2026-04-14 11:30 51.60482 21.84661 4828 ft 522 kts 308°
2026-04-14 11:31 51.62767 21.80220 4965 ft 511 kts 309°
2026-04-14 11:31 51.65060 21.75891 5032 ft 492 kts 308°
2026-04-14 11:31 51.66267 21.71596 4634 ft 396 kts 258°
2026-04-14 11:31 51.64823 21.68431 4422 ft 335 kts 211°
2026-04-14 11:32 51.62738 21.67606 3835 ft 286 kts 138°
2026-04-14 11:32 51.61838 21.70562 3300 ft 297 kts 113°
2026-04-14 11:32 51.60977 21.73393 2883 ft 262 kts 120°
2026-04-14 11:32 51.60127 21.75725 2625 ft 224 kts 121°
2026-04-14 11:33 51.59467 21.77591 2428 ft 153 kts 122°
2026-04-14 11:33 51.58986 21.78767 2081 ft 105 kts 124°
2026-04-14 11:33 51.58535 21.79975 1867 ft 150 kts 121°
2026-04-14 11:34 51.57479 21.82843 1225 ft 158 kts 122°
2026-04-14 11:34 51.56970 21.84210 982 ft 134 kts 122°
2026-04-14 11:34 51.56493 21.85504 793 ft 145 kts 122°
2026-04-14 11:34 51.56114 21.86518 654 ft 181 kts 121°
2026-04-14 11:35 51.55313 21.88699 625 ft 305 kts 120°
2026-04-14 11:35 51.56269 21.90892 3320 ft 356 kts
2026-04-14 11:35 51.58740 21.89086 4521 ft 429 kts 329°
2026-04-14 11:35 51.61464 21.86537 4872 ft 479 kts 328°
2026-04-14 11:36 51.64471 21.83758 4989 ft 509 kts 329°
2026-04-14 11:36 51.67283 21.81046 4978 ft 439 kts 320°
2026-04-14 11:36 51.68515 21.77184 4250 ft 365 kts 268°
2026-04-14 11:36 51.67655 21.73803 3792 ft 311 kts 220°
2026-04-14 11:37 51.65927 21.71940 3326 ft 300 kts 202°
2026-04-14 11:37 51.63959 21.71254 3138 ft 292 kts 177°
2026-04-14 11:37 51.61955 21.71872 2776 ft 292 kts 158°
2026-04-14 11:37 51.60712 21.73772 2601 ft 229 kts 117°
2026-04-14 11:38 51.60117 21.75714 2356 ft 152 kts 122°
2026-04-14 11:38 51.59738 21.76678 2169 ft 131 kts 122°
2026-04-14 11:38 51.59263 21.77890 1947 ft 127 kts 124°
2026-04-14 11:38 51.58817 21.79121 1825 ft 136 kts 121°
2026-04-14 11:39 51.58366 21.80421 1521 ft 136 kts 121°
2026-04-14 11:39 51.57853 21.81834 1313 ft 150 kts 122°
2026-04-14 11:39 51.57347 21.83245 1136 ft 134 kts 122°
2026-04-14 11:39 51.56857 21.84552 907 ft 144 kts 123°
2026-04-14 11:40 51.56316 21.85973 739 ft 152 kts 121°
2026-04-14 11:40 51.55597 21.87823 1124 ft 252 kts 123°
2026-04-14 11:40 51.55060 21.89551 3357 ft 282 kts 90°
2026-04-14 11:40 51.56964 21.90957 4612 ft 420 kts 341°
2026-04-14 11:41 51.59294 21.87474 5175 ft 501 kts 308°
2026-04-14 11:41 51.61508 21.83135 5192 ft 490 kts 308°
2026-04-14 11:41 51.63579 21.79026 5185 ft 465 kts 307°
2026-04-14 11:41 51.65647 21.75122 5155 ft 437 kts 308°
2026-04-14 11:42 51.66320 21.71028 4385 ft 357 kts 256°
2026-04-14 11:42 51.64885 21.68520 3532 ft 303 kts 200°
2026-04-14 11:42 51.62743 21.68365 2950 ft 324 kts 150°
2026-04-14 11:42 51.61556 21.71432 2428 ft 341 kts 118°
2026-04-14 11:43 51.60420 21.74764 2190 ft 334 kts 120°
2026-04-14 11:43 51.59237 21.78056 2163 ft 344 kts 121°
2026-04-14 11:43 51.57999 21.81414 2138 ft 349 kts 122°
2026-04-14 11:43 51.56779 21.84692 2141 ft 343 kts 122°
2026-04-14 11:44 51.55670 21.88046 2026 ft 337 kts 93°
2026-04-14 11:44 51.57143 21.89138 1405 ft 275 kts 310°
2026-04-14 11:44 51.58135 21.86912 1253 ft 197 kts 299°
2026-04-14 11:44 51.58126 21.85173 1140 ft 152 kts 228°
2026-04-14 11:45 51.57226 21.84497 1004 ft 150 kts 168°
2026-04-14 11:45 51.56522 21.85438 712 ft 128 kts 123°
2026-04-14 11:45 51.56084 21.86612 592 ft 129 kts 122°
2026-04-14 11:45 51.55640 21.87798 408 ft 110 kts 122°
2026-04-14 11:46 51.55365 21.88517 383 ft 30 kts 121°
2026-04-14 11:46 51.55341 21.88583 384 ft 0 kts 121°